Weather Service Report


000 
ASUS44 KBMX 291410
RWRAL 
             
ALABAMA REGIONAL WEATHER ROUNDUP
NATIONAL WEATHER SERVICE BIRMINGHAM AL
900 AM CDT SUN MAR 29 2015

NOTE: "FAIR" INDICATES FEW OR NO CLOUDS BELOW 12,000 FEET
WITH NO SIGNIFICANT WEATHER AND/OR OBSTRUCTIONS TO VISIBILITY.

THE REMARK "TC" DENOTES TEMPERATURE IN DEGREES CELSIUS.

ALZ001>011-014-016>018-020-291500-
NORTH ALABAMA
  
CITY           SKY/WX    TMP DP  RH WIND       PRES   REMARKS
MUSCLE SHOALS  SUNNY     42  21  43 SE13      30.35F                  
HUNTSVILLE     MOSUNNY   42  22  44 E12       30.36F                  
DECATUR        SUNNY     41  23  48 E9        30.37F                  
HALEYVILLE       N/A     40  17  39 SE9       30.36S WCI  34          
GADSDEN        SUNNY     39  23  52 N3        30.39R                  
$$
 
ALZ012-013-022-023-030>036-040>044-291500-
WEST CENTRAL ALABAMA
  
CITY           SKY/WX    TMP DP  RH WIND       PRES   REMARKS
TUSCALOOSA     CLOUDY    47  21  35 E8        30.37R                  
$$
 
ALZ015-024>027-033>036-040>044-291500-
CENTRAL ALABAMA
  
CITY           SKY/WX    TMP DP  RH WIND       PRES   REMARKS
BIRMINGHAM     MOSUNNY   44  16  32 VRB3      30.39S                  
MONTGOMERY     CLOUDY    49  22  34 E10       30.40R                  
SHELBY CO ARPT SUNNY     46  22  38 VRB7      30.38R                  
MAXWELL AFB    CLOUDY    48  20  32 E8        30.39R                  
GREENVILLE     CLOUDY    48  27  44 E8        30.36S                  
$$
 
ALZ019-021-028-029-037-038-045>048-291500-
EAST CENTRAL ALABAMA
  
CITY           SKY/WX    TMP DP  RH WIND       PRES   REMARKS
ANNISTON       SUNNY     41  20  43 NE6       30.41R                  
ALEXANDER CITY MOSUNNY   47  16  29 E6        30.40R                  
AUBURN         SUNNY     45  16  31 E12       30.42R                  
$$
 
ALZ051>064-291500-
SOUTHWEST ALABAMA
  
CITY           SKY/WX    TMP DP  RH WIND       PRES   REMARKS
MOBILE         MOSUNNY   52  33  48 E13       30.35S                  
BROOKLEY FIELD SUNNY     52  33  48 E17       30.38R                  
EVERGREEN      SUNNY     50  31  48 E7        30.37S                  
$$

ALZ049-050-065>069-291500-
SOUTHEAST ALABAMA
  
CITY           SKY/WX    TMP DP  RH WIND       PRES   REMARKS
DOTHAN         PTSUNNY   48  23  37 E14       30.42R                  
OZARK          SUNNY     50  27  40 E10       30.38R                  
TROY           MOSUNNY   49  22  34 E9        30.39S                  
EUFAULA        CLOUDY    51  21  30 E7        30.40R                  
$$

Return to Home page


Western Regional Climate Center, wrcc@dri.edu